Content
SEND FEEDBACK

Daily
Averages
Monthly
Summary
United States of America

ST. LOUIS - SAINT LOUIS UNIVERSITY, MISSOURI


Home > North America > United States > Missouri
Elevation: 580 feet     Latitude: 38 38N     Longitude: 090 14W

WEATHER
 
SELECT A DAY
Number of Records: 186,374;   Date Range: 1/1/95 - 9/13/14
 
SHARE

PRINT THIS DATA

[ ← Previous Day ]
WEATHER ALMANAC - APRIL 20, 2013
[ Next Day → ]
[ °C ]   °F
Weather ElementAverageHighLow
Temperature45.3 °F55.9 °F (5:53 pm)33.1 °F (6:53 am)
Dewpoint27.7 °F32 °F (10:53 pm)23 °F (6:53 pm)
Humidity53.1 %82 % (6:53 am)30 % (3:53 pm)
Barometer30.26 in30.35 in (10:53 pm)30.11 in (1:53 am)
Wind Speed3.8 mph9.2 mph (7:53 pm)
Weather ElementAverage
Visibility10 mi
Wind DirectionESE (117 °)

Weather ElementTotal
Precipitation---
Heating Degree Days20.5 (Base 65)
Averaged from 23 records on April 20, 2013
WEATHER CONDITIONS BREAKOUT
WIND DIRECTION BREAKOUT
WEATHER BY HOUR - APRIL 20, 2013
[ °C ]   °F
Local TimeTemperatureDewpointHumidityBarometerVisibilityWind DirectionWind SpeedGust SpeedPrecipitationEventsConditions
1:53 AM37.9 °F27.0 °F65 %30.11 in10.0 miWest (260°)4.6 mphClear
2:53 AM36.0 °F28.0 °F73 %30.12 in10.0 miWSW (250°)4.6 mphClear
3:53 AM35.1 °F28.0 °F76 %30.14 in10.0 miWNW (300°)3.5 mphClear
4:53 AM35.1 °F27.0 °F72 %30.17 in10.0 miNorth (350°)5.8 mphClear
5:53 AM35.1 °F27.0 °F72 %30.19 in10.0 miCalmClear
6:53 AM33.1 °F28.0 °F82 %30.23 in10.0 miCalmClear
7:53 AM39.0 °F30.0 °F70 %30.26 in10.0 miCalmClear
8:53 AM43.0 °F28.0 °F56 %30.27 in10.0 miNNE (30°)3.5 mphClear
9:53 AM45.0 °F28.9 °F53 %30.28 in10.0 miCalmClear
10:53 AM48.0 °F28.9 °F48 %30.30 in10.0 miNorth (360°)5.8 mphClear
11:53 AM48.9 °F26.1 °F41 %30.30 in10.0 miNW (310°)5.8 mphClear
12:53 PM51.1 °F24.1 °F35 %30.29 in10.0 miCalmClear
1:53 PM52.0 °F26.1 °F37 %30.28 in10.0 miCalmClear
2:53 PM54.0 °F27.0 °F35 %30.27 in10.0 miVariable4.6 mphClear
3:53 PM55.0 °F24.1 °F30 %30.26 in10.0 miCalmClear
4:53 PM55.0 °F24.1 °F30 %30.26 in10.0 miNorth (360°)4.6 mphClear
5:53 PM55.9 °F26.1 °F32 %30.26 in10.0 miCalmClear
6:53 PM53.1 °F23.0 °F31 %30.26 in10.0 miNE (40°)5.8 mphClear
7:53 PM48.9 °F30.0 °F48 %30.28 in10.0 miEast (90°)9.2 mphClear
8:53 PM46.9 °F30.9 °F54 %30.31 in10.0 miEast (80°)6.9 mphClear
9:53 PM45.0 °F30.9 °F58 %30.33 in10.0 miEast (100°)6.9 mphClear
10:53 PM44.1 °F32.0 °F63 %30.35 in10.0 miEast (80°)6.9 mphClear
11:53 PM45.0 °F32.0 °F60 %30.35 in10.0 miEast (80°)9.2 mphClear
Hourly data recorded from KCPS, located miles away from St. Louis - Saint Louis University, Missouri







STORIES FROM OUR PARTNERS